Location: Bats
(43.6587°N, 0.4584°W)
Time: 10:59:42
(UTC+00:00)

UNK - Pass Details

Date: 12 January 2026
Orbit: 654 x 673 km, 98.4° (Epoch: 10 February)

Event Time Altitude Azimuth Distance (km) Brightness Sun altitude
Rises 17:42:16 0° 9° (N) 2,989 6.8 -9.9°
Reaches altitude 10° 17:44:30 10° 6° (N) 2,072 6.0 -10.3°
Maximum altitude 17:48:57 60° 287° (WNW) 751 4.2 -11.0°
Drops below altitude 10° 17:53:22 10° 208° (SSW) 2,058 6.9 -11.8°
Sets 17:55:35 0° 205° (SSW) 2,966 7.7 -12.2°
